Location: Melbourne
(37.8120°S, 144.9677°E)
Time: 13:46:43
(UTC+11:00)

ISS - Visible Passes

Search period start: 25 October 2014 00:00
Search period end: 04 November 2014 00:00
Orbit: 412 x 416 km, 51.6° (Epoch: 24 October)

Date Brightness Start Highest point End Pass type
(mag) Time Alt. Az. Time Alt. Az. Time Alt. Az.
25 Oct 0.0 03:33:48 11° S 03:33:48 11° S 03:34:17 10° S visible
29 Oct -0.3 05:06:16 10° SSW 05:08:20 15° SSE 05:10:23 10° ESE visible
30 Oct 0.0 04:17:27 10° S 04:18:43 12° SSE 04:19:58 10° SE visible
31 Oct -1.0 05:03:38 10° SSW 05:06:37 27° SSE 05:09:34 10° E visible
01 Nov -0.4 04:14:31 10° SSW 04:17:01 19° SSE 04:19:30 10° ESE visible
02 Nov 0.0 03:25:27 10° SSW 03:27:19 14° SSE 03:29:10 10° SE visible
02 Nov -2.9 05:01:08 10° SW 05:04:31 68° SE 05:07:52 10° ENE visible
02 Nov -1.5 21:41:29 10° NW 21:42:49 22° NNW 21:42:49 22° NNW visible
03 Nov -1.8 04:11:45 10° SW 04:14:57 38° SE 04:18:08 10° ENE visible
03 Nov -2.5 20:52:21 10° NNW 20:55:21 31° NE 20:58:23 10° ESE visible
03 Nov -1.2 22:29:02 10° W 22:31:53 28° SW 22:31:53 28° SW visible
